Weather History for Jacksonville, FL

Change the Weather History Date:

Sunday, December 9, 2012

  Actual Average Record
Temperature  
Mean Temperature 65 °F 56 °F  
Max Temperature 74 °F 68 °F 84 °F (2004)
Min Temperature 55 °F 45 °F 28 °F (1984)
Degree Days  
Heating Degree Days 0 9  
Month to date heating degree days 17 77  
Since 1 July heating degree days 265 250  
Cooling Degree Days 0 1  
Month to date cooling degree days 1 9  
Year to date cooling degree days 2744 2653  
Growing Degree Days 14 (Base 50)    
Moisture  
Dew Point 61 °F    
Average Humidity 90    
Maximum Humidity 100    
Minimum Humidity 79    
Precipitation  
Precipitation T in 0.09 in 3.29 in (1885)
Month to date precipitation 0.23 0.79  
Year to date precipitation 51.33 50.38  
Snow  
Snow 0.00 in 0.00 in T in (1957)
Month to date snowfall 0.0 0.0  
Since 1 July snowfall 0.0 0.0  
Snow Depth 0.00 in    
Sea Level Pressure  
Sea Level Pressure 30.06 in    
Wind  
Wind Speed 2 mph (NE)    
Max Wind Speed 7 mph    
Max Gust Speed -    
Visibility 3 miles    
Events Fog , Rain    
T = Trace of Precipitation, MM = Missing Value Source: NWS Daily Summary

Daily Weather History Graph

Daily Weather History Graph

Search for Another Location

Airport:

Trip Planner

Search our weather history database for the weather conditions in past years. The results will help you decide how hot, cold, wet, or windy it might be!

Date:

Astronomy

Dec. 09, 2012 Rise Set
Actual Time 7:12 AM EST 5:26 PM EST
Civil Twilight 6:46 AM EST 5:52 PM EST
Nautical Twilight 6:16 AM EST 6:22 PM EST
Astronomical Twilight 5:46 AM EST 6:51 PM EST
Moon 2:56 AM EST (12/9) 2:21 PM EST (12/9)
Length of Visible Light 11h 06m
Length of Day
10h 13m
Waning Crescent, 19% of the Moon is Illuminated
Dec 9
Waning Crescent
Dec 13
New
Dec 20
First Quarter
Dec 28
Full
Jan 4
Last Quarter

Hourly Weather History & Observations

Time (EST) Temp. Dew Point Humidity Pressure Visibility Wind Dir Wind Speed Gust Speed Precip Events Conditions
12:56 AM 60.1 °F 59.0 °F 96% 30.07 in 0.1 mi Calm Calm - N/A Fog Fog
1:41 AM 59.0 °F 57.2 °F 94% 30.06 in 0.1 mi Calm Calm - N/A Fog Fog
1:48 AM 57.2 °F 57.2 °F 100% 30.06 in 0.1 mi Calm Calm - N/A Fog Fog
1:56 AM 57.9 °F 57.9 °F 100% 30.06 in 0.2 mi Calm Calm - N/A Fog Fog
2:35 AM 57.2 °F 57.2 °F 100% 30.06 in 0.5 mi Calm Calm - N/A Fog Fog
2:48 AM 57.2 °F 55.4 °F 94% 30.06 in 0.5 mi Calm Calm - N/A Fog Fog
2:56 AM 57.0 °F 55.9 °F 96% 30.06 in 0.5 mi Calm Calm - N/A Fog Fog
3:19 AM 57.2 °F 55.4 °F 94% 30.05 in 1.0 mi Calm Calm - N/A   Mostly Cloudy
3:56 AM 55.9 °F 55.0 °F 97% 30.05 in 1.0 mi Calm Calm - N/A   Mostly Cloudy
4:12 AM 55.4 °F 55.4 °F 100% 30.05 in 2.0 mi Calm Calm - N/A   Mostly Cloudy
4:21 AM 55.4 °F 53.6 °F 94% 30.05 in 6.0 mi Calm Calm - N/A   Scattered Clouds
4:44 AM 55.4 °F 55.4 °F 100% 30.05 in 7.0 mi Calm Calm - N/A   Mostly Cloudy
4:56 AM 55.9 °F 55.0 °F 97% 30.05 in 10.0 mi Calm Calm - N/A   Overcast
5:06 AM 55.4 °F 55.4 °F 100% 30.05 in 2.0 mi Calm Calm - N/A   Overcast
5:10 AM 55.4 °F 55.4 °F 100% 30.05 in 0.8 mi Calm Calm - N/A   Overcast
5:14 AM 55.4 °F 55.4 °F 100% 30.05 in 0.2 mi Calm Calm - N/A Fog Fog
5:51 AM 55.4 °F 55.4 °F 100% 30.06 in 0.5 mi North 4.6 mph - N/A Fog Fog
5:56 AM 55.9 °F 55.9 °F 100% 30.06 in 0.5 mi NNE 3.5 mph - N/A Fog Fog
6:56 AM 55.9 °F 55.9 °F 100% 30.08 in 0.8 mi Calm Calm - N/A   Mostly Cloudy
7:12 AM 55.4 °F 55.4 °F 100% 30.08 in 0.2 mi North 3.5 mph - N/A Fog Fog
7:30 AM 57.2 °F 55.4 °F 94% 30.08 in 0.8 mi Calm Calm - N/A   Overcast
7:42 AM 57.2 °F 55.4 °F 94% 30.09 in 1.0 mi Calm Calm - N/A   Mostly Cloudy
7:52 AM 57.2 °F 55.4 °F 94% 30.09 in 5.0 mi Calm Calm - N/A   Mostly Cloudy
7:56 AM 57.0 °F 57.0 °F 100% 30.09 in 2.0 mi Calm Calm - N/A   Mostly Cloudy
8:30 AM 59.0 °F 57.2 °F 94% 30.10 in 2.0 mi North 3.5 mph - N/A   Mostly Cloudy
8:32 AM 59.0 °F 57.2 °F 94% 30.10 in 1.0 mi North 3.5 mph - N/A   Mostly Cloudy
8:56 AM 60.1 °F 59.0 °F 96% 30.11 in 1.0 mi North 3.5 mph - N/A   Overcast
9:56 AM 63.0 °F 61.0 °F 93% 30.12 in 1.0 mi NNE 4.6 mph - N/A   Overcast
10:56 AM 64.0 °F 62.1 °F 93% 30.11 in 1.0 mi Calm Calm - N/A   Overcast
11:09 AM 64.4 °F 62.6 °F 94% 30.10 in 4.0 mi Calm Calm - N/A   Overcast
11:53 AM 66.2 °F 62.6 °F 88% 30.08 in 7.0 mi Calm Calm - N/A   Mostly Cloudy
11:56 AM 66.9 °F 64.0 °F 90% 30.09 in 7.0 mi Calm Calm - N/A   Mostly Cloudy
12:14 PM 68.0 °F 62.6 °F 83% 30.08 in 7.0 mi Calm Calm - N/A   Mostly Cloudy
12:37 PM 69.8 °F 64.4 °F 83% 30.07 in 6.0 mi Calm Calm - 0.00 in Rain Light Rain
12:56 PM 70.0 °F 64.9 °F 84% 30.06 in 6.0 mi ENE 4.6 mph - 0.00 in   Haze
1:42 PM 71.6 °F 66.2 °F 83% 30.03 in 8.0 mi North 4.6 mph - N/A   Mostly Cloudy
1:56 PM 73.9 °F 66.0 °F 76% 30.04 in 10.0 mi North 4.6 mph - N/A   Mostly Cloudy
2:24 PM 73.4 °F 66.2 °F 78% 30.02 in 10.0 mi NE 3.5 mph - N/A   Mostly Cloudy
2:51 PM 73.4 °F 66.2 °F 78% 30.01 in 10.0 mi NE 4.6 mph - N/A   Mostly Cloudy
2:56 PM 73.0 °F 66.9 °F 81% 30.01 in 10.0 mi NNE 3.5 mph - N/A   Mostly Cloudy
3:56 PM 73.0 °F 66.9 °F 81% 30.02 in 10.0 mi NNE 3.5 mph - N/A   Mostly Cloudy
4:06 PM 73.4 °F 66.2 °F 78% 30.02 in 10.0 mi NNE 3.5 mph - N/A   Mostly Cloudy
4:56 PM 71.1 °F 68.0 °F 90% 30.02 in 10.0 mi NE 3.5 mph - N/A   Mostly Cloudy
5:56 PM 69.1 °F 66.9 °F 93% 30.04 in 10.0 mi NE 4.6 mph - N/A   Overcast
6:05 PM 69.8 °F 66.2 °F 88% 30.03 in 10.0 mi NE 3.5 mph - N/A   Overcast
6:54 PM 68.0 °F 66.2 °F 94% 30.04 in 4.0 mi ENE 3.5 mph - N/A   Mostly Cloudy
6:56 PM 68.0 °F 66.9 °F 96% 30.04 in 4.0 mi East 3.5 mph - N/A   Mostly Cloudy
7:37 PM 66.2 °F 66.2 °F 100% 30.04 in 1.5 mi East 4.6 mph - N/A   Mostly Cloudy
7:50 PM 66.2 °F 64.4 °F 94% 30.04 in 0.2 mi ESE 3.5 mph - N/A Fog Fog
7:51 PM 66.0 °F 64.9 °F 96% 30.04 in 0.2 mi ESE 3.5 mph - N/A Fog Fog
7:56 PM 66.0 °F 64.9 °F 96% 30.04 in 0.2 mi ESE 3.5 mph - N/A Fog Fog
8:53 PM 66.2 °F 64.4 °F 94% 30.04 in 0.1 mi Calm Calm - N/A Fog Fog
8:56 PM 66.0 °F 64.9 °F 96% 30.04 in 0.1 mi Calm Calm - N/A Fog Fog
9:56 PM 64.9 °F 64.9 °F 100% 30.04 in 0.1 mi Calm Calm - N/A Fog Fog
10:56 PM 64.0 °F 64.0 °F 100% 30.04 in 0.1 mi SSE 3.5 mph - N/A Fog Fog
11:56 PM 64.0 °F 64.0 °F 100% 30.02 in 0.1 mi South 3.5 mph - N/A Fog Fog